Location: El Escondido
(32.5691°N, 116.4250°W)
Time: 10:39:52
(UTC+00:00)

BlueWalker 3 - Visible Passes

Search period start: 23 June 2024 00:00
Search period end: 03 July 2024 00:00
Orbit: 480 x 493 km, 53.2° (Epoch: 22 June)

Date Brightness Start Highest point End Pass type
(mag) Time Alt. Az. Time Alt. Az. Time Alt. Az.
23 Jun 5.0 03:56:23 10° WNW 03:58:42 16° NW 04:01:02 10° N visible
23 Jun 5.3 08:57:43 10° NNE 08:58:34 11° NNE 08:59:26 10° NE visible
23 Jun 1.9 10:33:31 10° NW 10:37:15 78° NE 10:40:59 10° SE visible
24 Jun 5.0 03:30:29 10° WNW 03:32:58 17° NW 03:35:26 10° N visible
24 Jun 4.1 10:07:48 10° NW 10:08:50 18° NW 10:08:50 18° NW visible
01 Jul 5.1 07:07:42 10° NNW 07:08:06 12° NNW 07:08:06 12° NNW visible
02 Jul 4.8 06:41:58 10° NNW 06:42:52 16° NNW 06:42:52 16° NNW visible
